Charlottetown, Prince Edward Island

7:40 AM AST on February 28, 2017 (GMT -0400)
Charlottetown

Weather History for CYYG - November, 2011

Change the Weather History Date:

Friday, November 11, 2011

  Actual Average Record
Temperature  
Mean Temperature 52 °F -  
Max Temperature 61 °F 39 °F 62 °F (2002)
Min Temperature 42 °F 25 °F 21 °F (1999)
Degree Days  
Heating Degree Days 14    
Growing Degree Days 2 (Base 50)    
Moisture  
Dew Point 55 °F    
Average Humidity 94    
Maximum Humidity 100    
Minimum Humidity 88    
Precipitation  
Precipitation 0.83 in 0.17 in - ()
Sea Level Pressure  
Sea Level Pressure 29.36 in    
Wind  
Wind Speed 17 mph ()    
Max Wind Speed 31 mph    
Max Gust Speed 44 mph    
Visibility 7.5 miles    
Events Rain    
Averages and records for this station are not official NWS values.
T = Trace of Precipitation, MM = Missing Value Source: Averaged Metar Reports

Daily Weather History Graph

Daily Weather History Graph

Search for Another Location

Airport or City:

Trip Planner

Search our weather history database for the weather conditions in past years. The results will help you decide how hot, cold, wet, or windy it might be!

Date:

Astronomy

Nov. 11, 2011 Rise Set
Actual Time 7:07 AM AST 4:44 PM AST
Civil Twilight 6:35 AM AST 5:17 PM AST
Nautical Twilight 5:59 AM AST 5:53 PM AST
Astronomical Twilight 5:23 AM AST 6:28 PM AST
Moon 5:05 PM AST (11/11) 7:56 AM AST (11/11)
Length of Visible Light 10h 41m
Length of Day
9h 37m
Waxing Gibbous, 99% of the Moon is Illuminated
Nov 11
Waxing Gibbous
Nov 18
Last Quarter
Nov 25
New
Dec 2
First Quarter
Dec 10
Full

Hourly Weather History & Observations

Time (AST) Temp. Windchill Dew Point Humidity Pressure Visibility Wind Dir Wind Speed Gust Speed Precip Events Conditions
12:00 AM 53.6 °F - 51.8 °F 94% 29.89 in 15.0 mi SE 13.8 mph - N/A   Overcast
12:27 AM 53.6 °F - - N/A% - 15.0 mi SE 12.7 mph 18.4 mph N/A   Overcast
1:00 AM 53.6 °F - 51.8 °F 94% 29.84 in 15.0 mi SE 11.5 mph - N/A   Overcast
2:00 AM 55 °F - 53 °F 88% 29.79 in 15 mi SE 11.5 mph - -   Overcast
2:00 AM 55.4 °F - 51.8 °F 88% 29.79 in 15.0 mi SE 11.5 mph - N/A   Overcast
2:08 AM 55.4 °F - - N/A% - 15.0 mi SSE 11.5 mph - N/A Rain Light Rain
3:00 AM 57.2 °F - 55.4 °F 94% 29.74 in 15.0 mi SSE 17.3 mph 23.0 mph N/A Rain Light Rain
4:00 AM 59.0 °F - 55.4 °F 88% 29.68 in 15.0 mi SSE 20.7 mph 27.6 mph N/A Rain Light Rain Showers
5:00 AM 60.8 °F - 57.2 °F 88% 29.62 in 12.0 mi SSE 19.6 mph 29.9 mph N/A Rain Light Rain Showers
6:00 AM 59.0 °F - 57.2 °F 94% 29.57 in 10.0 mi SSE 24.2 mph 34.5 mph N/A Rain Rain
6:40 AM 59.0 °F - - N/A% - 10.0 mi SSE 27.6 mph 33.4 mph N/A Rain Light Rain
7:00 AM 59.0 °F - 57.2 °F 94% 29.50 in 10.0 mi SSE 25.3 mph 36.8 mph N/A Rain Light Rain
7:30 AM 59.0 °F - - N/A% - 2.5 mi SSE 24.2 mph 38.0 mph N/A Rain Rain
8:00 AM 59 °F - 58 °F 94% 29.44 in 3 mi SSE 27.6 mph - - Rain Light Rain
8:00 AM 59.0 °F - 57.2 °F 94% 29.44 in 3.0 mi SSE 28.8 mph 40.3 mph N/A Rain Light Rain
9:00 AM 59.0 °F - 57.2 °F 94% 29.38 in 2.5 mi SSE 25.3 mph 34.5 mph N/A Rain Rain
10:00 AM 60.8 °F - 59.0 °F 94% 29.31 in 5.0 mi SSE 26.5 mph 39.1 mph N/A Rain Light Rain
11:00 AM 60.8 °F - 57.2 °F 88% 29.29 in 5.0 mi South 31.1 mph 43.7 mph N/A Rain Light Rain
11:21 AM 59.0 °F - - N/A% - 2.0 mi South 25.3 mph 38.0 mph N/A Rain Heavy Rain
12:00 PM 60.8 °F - 57.2 °F 88% 29.23 in 12.0 mi South 26.5 mph 36.8 mph N/A Rain Light Rain
12:08 PM 60.8 °F - - N/A% - 2.5 mi South 28.8 mph 38.0 mph N/A Rain Rain
12:13 PM 60.8 °F - - N/A% - 1.0 mi South 27.6 mph 38.0 mph N/A Rain Heavy Rain
12:29 PM 59.0 °F - - N/A% - 2.0 mi South 24.2 mph 32.2 mph N/A Rain Rain
12:41 PM 59.0 °F - - N/A% - 5.0 mi South 26.5 mph 32.2 mph N/A Rain Light Rain
1:00 PM 60.8 °F - 59.0 °F 94% 29.21 in 5.0 mi South 24.2 mph 31.1 mph N/A Rain Light Rain
2:00 PM 60 °F - 59 °F 94% 29.17 in 3 mi South 19.6 mph - - Rain Rain
2:00 PM 60.8 °F - 59.0 °F 94% 29.17 in 3.0 mi South 19.6 mph 27.6 mph N/A Rain Rain
3:00 PM 59.0 °F - 59.0 °F 100% 29.13 in 3.0 mi SSE 19.6 mph 29.9 mph N/A Rain Rain
3:49 PM 60.8 °F - - N/A% - 2.5 mi SE 15.0 mph 23.0 mph N/A Rain Rain
4:00 PM 60.8 °F - 59.0 °F 94% 29.07 in 2.5 mi SE 16.1 mph 23.0 mph N/A Rain Rain
4:20 PM 60.8 °F - - N/A% - 1.0 mi SSE 17.3 mph 23.0 mph N/A Rain Heavy Rain
4:40 PM 60.8 °F - - N/A% - 2.0 mi South 18.4 mph 25.3 mph N/A Rain Light Rain
5:00 PM 60.8 °F - 59.0 °F 94% 29.04 in 2.0 mi South 18.4 mph 24.2 mph N/A Rain Light Rain
5:23 PM 59.0 °F - - N/A% - 1.5 mi South 15.0 mph 21.9 mph N/A Rain Rain
5:51 PM 60.8 °F - - N/A% - 1.5 mi South 15.0 mph - N/A   Light Drizzle
6:00 PM 59.0 °F - 59.0 °F 100% 29.00 in 1.5 mi South 11.5 mph 17.3 mph N/A   Light Drizzle
8:00 PM 54 °F - 54 °F 100% 29.02 in 7 mi WSW 13.8 mph - - Rain Light Drizzle
8:00 PM 53.6 °F - 53.6 °F 100% 29.02 in 8.0 mi WSW 13.8 mph - N/A   Light Drizzle
9:00 PM 48.2 °F - 48.2 °F 100% 29.08 in 12.0 mi West 12.7 mph 18.4 mph N/A   Light Drizzle
9:20 PM 48.2 °F - - N/A% - 15.0 mi West 9.2 mph - N/A   Overcast
10:00 PM 46.4 °F 40.4 °F 44.6 °F 93% 29.11 in 15.0 mi West 13.8 mph 23.0 mph N/A   Overcast
10:29 PM 44.6 °F 36.9 °F - N/A% - 15.0 mi West 18.4 mph 28.8 mph N/A   Overcast
11:00 PM 42.8 °F 35.1 °F 41.0 °F 93% 29.15 in 15.0 mi West 16.1 mph 31.1 mph N/A   Overcast
11:16 PM 42.8 °F 36.6 °F - N/A% - 6.0 mi West 11.5 mph 23.0 mph N/A   Light Drizzle